EDT,Max TemperatureF,Mean TemperatureF,Min TemperatureF,Max Dew PointF,MeanDew PointF,Min DewpointF,Max Humidity, Mean Humidity, Min Humidity, Max Sea Level PressureIn, Mean Sea Level PressureIn, Min Sea Level PressureIn, Max VisibilityMiles, Mean VisibilityMiles, Min VisibilityMiles, Max Wind SpeedMPH, Mean Wind SpeedMPH, Max Gust SpeedMPH,PrecipitationIn, CloudCover, Events, WindDirDegrees
2013-3-1,49,38,30,33,29,24,87,66,43,29.90,29.85,29.81,10,10,10,7,1,,0.00,5,,309
2013-3-2,42,34,27,31,26,22,90,66,47,29.91,29.87,29.83,10,10,10,8,2,,0.00,6,,346
2013-3-3,45,38,30,27,22,17,88,61,35,29.94,29.89,29.82,10,10,10,8,1,,0.00,5,,317
2013-3-4,49,37,27,23,16,8,81,48,21,30.08,30.02,29.95,10,10,10,9,1,,0.00,1,,305
2013-3-5,52,38,25,36,27,19,91,63,29,30.11,29.97,29.64,10,10,2,12,2,16,0.18,5,Rain-Snow,93
2013-3-6,47,41,35,46,35,32,93,88,79,29.94,29.61,29.44,10,8,2,17,5,31,0.33,7,Rain,300
2013-3-7,50,42,35,32,28,24,83,59,41,30.18,30.08,29.94,10,10,10,17,7,29,0.00,2,,328
2013-3-8,50,41,32,29,25,20,76,53,35,30.23,30.18,30.11,10,10,10,17,4,28,0.00,0,,331
2013-3-9,58,45,32,33,26,16,86,54,19,30.32,30.28,30.23,10,10,10,12,4,18,0.00,0,,347
2013-3-10,65,46,26,42,26,6,92,57,11,30.34,30.30,30.25,10,10,7,8,1,,0.00,0,,107
2013-3-11,70,53,36,51,45,34,93,73,46,30.29,30.14,30.01,10,9,1,15,4,21,0.00,2,,153
2013-3-12,70,60,50,65,54,36,92,80,54,30.00,29.85,29.73,10,10,4,15,7,20,0.31,5,Rain,178
2013-3-13,55,45,35,40,28,19,85,51,25,30.09,30.00,29.92,10,10,10,10,3,,0.00,2,,319
2013-3-14,50,40,30,24,17,13,76,44,23,30.21,30.14,30.08,10,10,10,9,2,17,0.00,0,,304
2013-3-15,60,42,25,32,25,14,85,50,21,30.17,30.04,29.90,10,10,10,5,1,,0.00,0,,213
2013-3-16,75,60,45,56,45,34,91,63,36,29.90,29.78,29.63,10,10,7,15,2,29,0.01,3,Rain,213
2013-3-17,55,46,38,53,41,33,92,83,71,30.24,30.07,29.83,10,9,0,13,6,17,0.00,6,Fog,27
2013-3-18,47,42,36,45,39,33,93,91,81,30.23,30.11,29.90,10,5,0,9,5,,0.02,8,Fog-Rain,31
2013-3-19,65,52,38,46,33,-3,93,62,10,29.99,29.86,29.81,10,6,1,8,2,18,0.02,4,Rain,293
2013-3-20,52,42,32,28,12,-6,81,31,10,30.11,29.98,29.81,10,10,10,5,0,,0.00,0,,201
2013-3-21,42,36,30,32,21,6,88,59,27,29.96,29.80,29.71,10,10,10,20,4,23,0.00,3,Rain-Snow,334
2013-3-22,50,36,21,22,13,5,74,42,16,30.07,30.00,29.94,10,10,10,6,1,,0.00,0,,233
2013-3-23,55,40,25,32,25,19,85,61,27,30.06,30.00,29.93,10,10,10,6,0,,0.00,3,,28
2013-3-24,40,35,30,37,33,26,91,89,85,29.95,29.78,29.58,10,8,2,16,4,23,0.78,5,Rain,31
2013-3-25,45,38,32,39,33,27,95,80,56,29.76,29.60,29.50,10,8,2,8,2,,0.01,7,Rain,289
2013-3-26,49,40,30,32,28,25,85,67,46,30.05,29.91,29.78,10,10,10,9,1,,0.00,3,,313
2013-3-27,51,42,32,30,24,19,82,51,29,30.19,30.12,30.06,10,10,10,10,2,,0.00,3,,304
2013-3-28,52,40,27,28,24,18,86,51,26,30.27,30.19,30.13,10,10,10,9,1,,0.00,2,,316
2013-3-29,57,42,26,37,27,21,90,59,25,30.32,30.25,30.19,10,10,10,7,1,,0.00,4,,310
2013-3-30,65,48,32,40,30,21,90,56,20,30.24,30.18,30.11,10,10,10,9,1,9,0.00,2,,16
2013-3-31,66,56,45,58,49,39,92,82,68,30.15,29.95,29.82,10,9,0,13,3,17,0.32,4,Fog-Rain,158